Olean, NY

6:49 PM EDT on September 26, 2017 (GMT -0400)
Cattaraugus County-Olean

Weather History for KOLE - January, 2014

Change the Weather History Date:

Thursday, January 9, 2014

  Actual Average (KBFD) Record (KBFD)
Temperature  
Mean Temperature 18 °F -  
Max Temperature 24 °F 23 °F 58 °F (2008)
Min Temperature 12 °F 8 °F -11 °F (1979)
Degree Days  
Heating Degree Days 47    
Moisture  
Dew Point 11 °F    
Average Humidity 74    
Maximum Humidity 93    
Minimum Humidity 50    
Precipitation  
Precipitation 0.00 in - - ()
Sea Level Pressure  
Sea Level Pressure 30.38 in    
Wind  
Wind Speed 5 mph (SSW)    
Max Wind Speed 12 mph    
Max Gust Speed 16 mph    
Visibility 8 miles    
Events Snow    
Averages and records for this station are not official NWS values.
T = Trace of Precipitation, MM = Missing Value Source: NWS Daily Summary

Daily Weather History Graph

Daily Weather History Graph

Search for Another Location

Airport or City:

Trip Planner

Search our weather history database for the weather conditions in past years. The results will help you decide how hot, cold, wet, or windy it might be!

Date:

Astronomy

Jan. 09, 2014 Rise Set
Actual Time 7:41 AM EST 4:59 PM EST
Civil Twilight 7:10 AM EST 5:31 PM EST
Nautical Twilight 6:35 AM EST 6:06 PM EST
Astronomical Twilight 6:01 AM EST 6:39 PM EST
Moon 12:28 PM EST (1/9) 1:44 AM EST (1/9)
Length of Visible Light 10h 20m
Length of Day
9h 18m
Waxing Gibbous, 66% of the Moon is Illuminated
Jan 9
Waxing Gibbous
Jan 15
Full
Jan 24
Last Quarter
Jan 30
New
Feb 6
First Quarter

Hourly Weather History & Observations

Time (EST) Temp. Windchill Dew Point Humidity Pressure Visibility Wind Dir Wind Speed Gust Speed Precip Events Conditions
12:15 AM 14.0 °F 5.1 °F 10.4 °F 86% 30.31 in 5.0 mi West 5.8 mph - N/A Snow Light Snow
12:35 AM 14.0 °F 8.2 °F 10.4 °F 86% 30.32 in 5.0 mi WSW 3.5 mph - N/A Snow Light Snow
12:55 AM 14.0 °F 5.1 °F 10.4 °F 86% 30.32 in 7.0 mi West 5.8 mph - N/A Snow Light Snow
1:15 AM 14.0 °F 2.9 °F 8.6 °F 79% 30.32 in 5.0 mi West 8.1 mph - N/A Snow Light Snow
1:35 AM 14.0 °F 8.2 °F 10.4 °F 86% 30.33 in 4.0 mi West 3.5 mph - N/A Snow Light Snow
1:55 AM 14.0 °F 6.5 °F 10.4 °F 86% 30.34 in 4.0 mi West 4.6 mph - N/A Snow Light Snow
2:15 AM 14.0 °F 5.1 °F 10.4 °F 86% 30.35 in 3.0 mi West 5.8 mph - N/A Snow Light Snow
2:35 AM 14.0 °F 5.1 °F 10.4 °F 86% 30.35 in 3.0 mi West 5.8 mph - N/A Snow Light Snow
2:55 AM 14.0 °F - 10.4 °F 86% 30.36 in 3.0 mi Calm Calm - N/A Snow Light Snow
3:15 AM 14.0 °F 5.1 °F 10.4 °F 86% 30.36 in 2.5 mi West 5.8 mph - N/A Snow Light Snow
3:35 AM 14.0 °F 5.1 °F 10.4 °F 86% 30.36 in 2.5 mi West 5.8 mph - N/A Snow Light Snow
3:55 AM 14.0 °F 5.1 °F 10.4 °F 86% 30.37 in 2.5 mi West 5.8 mph - N/A Snow Light Snow
4:15 AM 14.0 °F - 10.4 °F 86% 30.37 in 4.0 mi Calm Calm - N/A Snow Light Snow
4:35 AM 14.0 °F 6.5 °F 10.4 °F 86% 30.38 in 2.5 mi WNW 4.6 mph - N/A Snow Light Snow
4:55 AM 14.0 °F - 10.4 °F 86% 30.38 in 3.0 mi Calm Calm - N/A Snow Light Snow
5:15 AM 14.0 °F - 10.4 °F 86% 30.39 in 3.0 mi Calm Calm - N/A Snow Light Snow
5:35 AM 14.0 °F - 10.4 °F 86% 30.41 in 4.0 mi Calm Calm - N/A Snow Light Snow
5:55 AM 14.0 °F 8.2 °F 10.4 °F 86% 30.41 in 4.0 mi WSW 3.5 mph - N/A Snow Light Snow
6:15 AM 14.0 °F 8.2 °F 10.4 °F 86% 30.41 in 4.0 mi West 3.5 mph - N/A Snow Light Snow
6:35 AM 14.0 °F 5.1 °F 10.4 °F 86% 30.42 in 7.0 mi West 5.8 mph - N/A Snow Light Snow
6:55 AM 12.2 °F 4.3 °F 8.6 °F 85% 30.43 in 10.0 mi West 4.6 mph - N/A Snow Light Snow
7:15 AM 12.2 °F - 8.6 °F 85% 30.43 in 7.0 mi Calm Calm - N/A Snow Light Snow
7:35 AM 12.2 °F - 8.6 °F 85% 30.44 in 7.0 mi Calm Calm - N/A Snow Light Snow
7:55 AM 12.2 °F - 8.6 °F 85% 30.44 in 5.0 mi Calm Calm - N/A Snow Light Snow
8:15 AM 12.2 °F - 8.6 °F 85% 30.45 in 7.0 mi Calm Calm - N/A   Overcast
8:35 AM 12.2 °F 6.1 °F 8.6 °F 85% 30.46 in 10.0 mi SSW 3.5 mph - N/A   Overcast
8:55 AM 12.2 °F - 8.6 °F 85% 30.47 in 10.0 mi Calm Calm - N/A   Overcast
9:15 AM 12.2 °F 4.3 °F 8.6 °F 85% 30.48 in 10.0 mi SSW 4.6 mph - N/A   Overcast
9:35 AM 12.2 °F 4.3 °F 8.6 °F 85% 30.48 in 10.0 mi SW 4.6 mph - N/A Snow Light Snow
9:55 AM 14.0 °F 6.5 °F 8.6 °F 79% 30.49 in 7.0 mi SW 4.6 mph - N/A Snow Light Snow
10:15 AM 14.0 °F - 8.6 °F 79% 30.49 in 7.0 mi Calm Calm - N/A Snow Light Snow
10:35 AM 14.0 °F 5.1 °F 8.6 °F 79% 30.50 in 10.0 mi South 5.8 mph - N/A   Mostly Cloudy
10:55 AM 15.8 °F 8.6 °F 10.4 °F 79% 30.49 in 10.0 mi South 4.6 mph - N/A   Clear
11:15 AM 17.6 °F 12.3 °F 8.6 °F 68% 30.48 in 10.0 mi SE 3.5 mph - N/A   Clear
11:35 AM 19.4 °F 14.3 °F 8.6 °F 63% 30.47 in 10.0 mi South 3.5 mph - N/A   Clear
11:55 AM 19.4 °F 14.3 °F 8.6 °F 63% 30.45 in 10.0 mi South 3.5 mph - N/A   Clear
12:15 PM 19.4 °F 14.3 °F 8.6 °F 63% 30.44 in 10.0 mi SSW 3.5 mph - N/A   Clear
12:35 PM 21.2 °F - 8.6 °F 58% 30.43 in 10.0 mi Calm Calm - N/A   Clear
12:55 PM 23.0 °F - 8.6 °F 54% 30.41 in 10.0 mi Calm Calm - N/A   Clear
1:15 PM 21.2 °F 14.9 °F 8.6 °F 58% 30.41 in 10.0 mi SSW 4.6 mph - N/A   Clear
1:35 PM 21.2 °F 13.6 °F 8.6 °F 58% 30.40 in 10.0 mi SSW 5.8 mph - N/A   Clear
1:55 PM 23.0 °F - 8.6 °F 54% 30.39 in 10.0 mi Calm Calm - N/A   Clear
2:15 PM 24.8 °F 16.9 °F 10.4 °F 54% 30.38 in 10.0 mi SE 6.9 mph - N/A   Clear
2:35 PM 24.8 °F 20.5 °F 10.4 °F 54% 30.38 in 10.0 mi SE 3.5 mph - N/A   Clear
2:55 PM 24.8 °F 17.9 °F 8.6 °F 50% 30.39 in 10.0 mi South 5.8 mph - N/A   Clear
3:35 PM 23.0 °F 18.4 °F 8.6 °F 54% 30.38 in 10.0 mi South 3.5 mph - N/A   Clear
3:55 PM 23.0 °F 18.4 °F 8.6 °F 54% 30.38 in 10.0 mi South 3.5 mph - N/A   Clear
4:15 PM 23.0 °F 14.7 °F 8.6 °F 54% 30.38 in 10.0 mi South 6.9 mph - N/A   Clear
4:35 PM 23.0 °F 15.8 °F 8.6 °F 54% 30.38 in 10.0 mi South 5.8 mph - N/A   Clear
4:55 PM 23.0 °F 15.8 °F 8.6 °F 54% 30.38 in 10.0 mi South 5.8 mph - N/A   Clear
5:15 PM 23.0 °F 17.0 °F 8.6 °F 54% 30.38 in 10.0 mi SSE 4.6 mph - N/A   Clear
6:15 PM 23.0 °F 15.8 °F 10.4 °F 59% 30.37 in 10.0 mi South 5.8 mph - N/A   Overcast
6:35 PM 23.0 °F 15.8 °F 10.4 °F 59% 30.36 in 10.0 mi South 5.8 mph - N/A   Scattered Clouds
6:55 PM 23.0 °F 17.0 °F 10.4 °F 59% 30.35 in 10.0 mi South 4.6 mph - N/A   Scattered Clouds
7:15 PM 23.0 °F 14.7 °F 10.4 °F 59% 30.35 in 10.0 mi South 6.9 mph - N/A   Scattered Clouds
7:35 PM 23.0 °F 13.9 °F 10.4 °F 59% 30.35 in 10.0 mi South 8.1 mph - N/A   Clear
7:55 PM 23.0 °F 13.9 °F 12.2 °F 63% 30.35 in 10.0 mi South 8.1 mph - N/A   Clear
8:15 PM 23.0 °F 13.1 °F 12.2 °F 63% 30.35 in 10.0 mi SSW 9.2 mph 16.1 mph N/A   Clear
8:35 PM 23.0 °F 13.1 °F 14.0 °F 68% 30.33 in 10.0 mi South 9.2 mph - N/A   Clear
8:55 PM 23.0 °F 11.7 °F 14.0 °F 68% 30.33 in 10.0 mi South 11.5 mph 16.1 mph N/A   Clear
9:15 PM 23.0 °F 11.7 °F 14.0 °F 68% 30.33 in 10.0 mi SSW 11.5 mph - N/A   Clear
9:35 PM 23.0 °F 12.4 °F 15.8 °F 74% 30.33 in 10.0 mi SSW 10.4 mph - N/A   Clear
9:55 PM 23.0 °F 13.1 °F 15.8 °F 74% 30.32 in 10.0 mi South 9.2 mph - N/A   Mostly Cloudy
10:15 PM 23.0 °F 13.1 °F 17.6 °F 80% 30.32 in 10.0 mi South 9.2 mph - N/A   Overcast
10:35 PM 23.0 °F 13.9 °F 17.6 °F 80% 30.32 in 10.0 mi South 8.1 mph - N/A Snow Light Snow
10:55 PM 23.0 °F 13.9 °F 19.4 °F 86% 30.30 in 4.0 mi South 8.1 mph - N/A Snow Light Snow
11:15 PM 23.0 °F 14.7 °F 21.2 °F 93% 30.29 in 3.0 mi South 6.9 mph - N/A Snow Light Snow
11:35 PM 23.0 °F 15.8 °F 21.2 °F 93% 30.28 in 5.0 mi South 5.8 mph - N/A Snow Light Snow
11:55 PM 23.0 °F 13.9 °F 21.2 °F 93% 30.28 in 7.0 mi South 8.1 mph - N/A   Overcast